PDT,Max TemperatureF,Mean TemperatureF,Min TemperatureF,Max Dew PointF,MeanDew PointF,Min DewpointF,Max Humidity, Mean Humidity, Min Humidity, Max Sea Level PressureIn, Mean Sea Level PressureIn, Min Sea Level PressureIn, Max VisibilityMiles, Mean VisibilityMiles, Min VisibilityMiles, Max Wind SpeedMPH, Mean Wind SpeedMPH, Max Gust SpeedMPH,PrecipitationIn, CloudCover, Events, WindDirDegrees
2012-10-1,90,70,50,35,31,25,52,31,10,30.31,30.12,30.01,10,10,10,9,1,13,0.00,0,,57
2012-10-2,90,70,50,35,31,27,54,33,11,30.09,29.98,29.87,10,10,10,18,3,25,0.00,1,,245
2012-10-3,87,69,50,33,29,25,50,31,11,30.02,29.95,29.88,10,10,10,18,4,26,0.00,1,,289
2012-10-4,85,67,49,34,30,27,50,32,13,30.11,30.01,29.96,10,10,10,23,6,31,0.00,2,,252
2012-10-5,78,63,48,33,30,22,54,33,12,30.10,30.03,29.96,10,10,10,17,4,22,0.00,4,,316
2012-10-6,76,61,46,32,27,21,58,36,13,30.07,30.00,29.92,10,10,10,15,3,20,0.00,2,,101
2012-10-7,74,57,40,30,22,11,62,36,9,30.06,29.96,29.88,10,10,10,12,3,16,0.00,0,,277
2012-10-8,77,60,42,37,30,18,53,32,11,29.99,29.92,29.83,10,10,10,24,7,31,T,2,Rain,294
2012-10-9,72,59,46,37,31,24,65,41,17,29.99,29.90,29.84,10,10,10,13,4,20,0.00,4,,324
2012-10-10,75,62,49,37,32,25,50,33,16,29.93,29.85,29.76,10,10,10,18,4,24,T,3,,239
2012-10-11,70,60,49,49,41,37,77,55,33,29.95,29.83,29.77,10,10,10,16,4,18,0.03,6,Rain,176
2012-10-12,76,63,50,50,42,32,83,52,21,30.10,29.92,29.81,10,10,6,22,7,30,0.05,5,Rain,292
2012-10-13,71,57,42,39,36,34,76,52,28,30.35,30.22,30.11,10,10,10,10,2,15,0.00,3,,234
2012-10-14,81,62,43,38,34,29,71,43,15,30.28,30.16,30.04,10,10,10,12,2,18,0.00,1,,268
2012-10-15,79,64,49,37,34,28,56,36,16,30.12,30.03,29.96,10,10,10,7,3,15,0.00,4,,209
2012-10-16,81,66,51,48,37,26,64,40,15,30.09,29.95,29.86,10,10,10,24,8,32,0.00,1,,314
2012-10-17,72,57,41,32,26,22,58,37,15,30.16,30.10,30.04,10,10,10,10,2,13,0.00,0,,125
2012-10-18,78,58,37,31,25,19,64,38,12,30.24,30.13,30.03,10,10,10,9,0,14,0.00,0,,349
2012-10-19,83,63,43,34,30,23,65,38,11,30.10,29.97,29.85,10,10,10,18,4,24,0.00,3,,230
2012-10-20,75,64,53,36,28,18,47,31,14,29.83,29.74,29.66,10,10,10,26,12,35,0.00,2,,286
2012-10-21,65,54,42,36,24,3,62,36,9,29.76,29.71,29.64,10,10,10,37,11,46,0.00,4,,222
2012-10-22,56,47,38,34,30,19,70,52,34,29.75,29.66,29.56,10,10,10,40,15,49,T,6,Rain,223
2012-10-23,52,42,32,34,25,19,70,50,29,29.96,29.87,29.73,10,10,10,26,10,38,T,5,Rain,291
2012-10-24,52,42,31,30,25,21,65,50,34,30.12,30.02,29.94,10,10,10,25,7,31,0.00,3,,321
2012-10-25,53,42,31,30,25,21,75,53,30,30.37,30.26,30.13,10,10,10,14,4,20,0.00,3,,101
2012-10-26,63,46,29,34,26,21,75,51,26,30.41,30.28,30.17,10,10,10,7,2,15,0.00,2,,116
2012-10-27,70,53,36,36,33,29,76,51,26,30.23,30.14,30.06,10,10,10,12,2,15,0.00,5,,42
2012-10-28,73,55,36,35,33,32,82,54,25,30.16,30.08,29.99,10,10,10,9,2,15,0.00,5,,218
2012-10-29,78,59,39,34,30,23,76,45,14,30.18,30.10,30.04,10,10,10,15,2,21,0.00,1,,260
2012-10-30,77,57,37,30,26,18,70,41,11,30.18,30.05,29.96,10,10,10,17,2,22,0.00,4,,239
2012-10-31,69,55,41,31,27,23,57,37,17,29.96,29.92,29.85,10,10,10,29,6,35,0.00,6,,205